Regional Weather Roundup
Issued by NWS

Home | Current Version | Previous Version | Graphics & Text | Print | Product List | Glossary On
Versions: 1 2 3 4 5 6 7 8 9 10 11 12 13 14 15 16 17 18 19 20 21 22 23 24 25 26 27 28 29 30 31 32 33 34 35 36 37 38 39 40 41 42 43 44 45 46 47 48 49 50
000
ASUS43 KTOP 231208
RWRKS

WEATHER ROUNDUP FOR KANSAS
NATIONAL WEATHER SERVICE GOODLAND KS
700 AM CDT WED JUL 23 2014

NOTE:  "FAIR" INDICATES FEW OR NO CLOUDS BELOW 12,000 FEET WITH NO
SIGNIFICANT WEATHER AND/OR OBSTRUCTIONS TO VISIBILITY.

KSZ001>006-013>018-027>032-041>047-231300-
NORTHWEST KANSAS

CITY           SKY/WX    TMP DP  RH WIND       PRES   REMARKS
GOODLAND       CLOUDY    68  67  96 E13       30.31R
6HR MIN TEMP:  67; 6HR MAX TEMP:  73;

HAYS           CLOUDY    73  63  68 NE15G23   30.25R
HILL CITY      CLOUDY    72  66  81 SE7       30.23F
6HR MIN TEMP:  72; 6HR MAX TEMP:  78;

RUSSELL        CLOUDY    73  67  81 NE15      30.22S
6HR MIN TEMP:  74; 6HR MAX TEMP:  81;

$$

KSZ061>065-074>080-084>089-231300-
SOUTHWEST KANSAS

CITY           SKY/WX    TMP DP  RH WIND       PRES   REMARKS
DODGE CITY     CLEAR     66  61  84 N5        30.22R
6HR MIN TEMP:  66; 6HR MAX TEMP:  73;

ELKHART          N/A     67  61  81 S6          N/A
GARDEN CITY    CLEAR     71  64  78 CALM      30.23R HAZE
6HR MIN TEMP:  69; 6HR MAX TEMP:  75;

GREAT BEND     PTCLDY    73  70  88 N9        30.19R
LIBERAL        CLEAR     70  64  83 CALM      30.24R
PRATT          CLEAR     68  64  88 NW6       30.19R FOG
$$

KSZ066>073-081>083-090>101-231300-
SOUTHEAST KANSAS

CITY           SKY/WX    TMP DP  RH WIND       PRES   REMARKS
CHANUTE        PTCLDY    78  76  93 N6        30.10R FOG
6HR MIN TEMP:  76; 6HR MAX TEMP:  80;

COFFEYVILLE    CLEAR     75  74  96 SW3       30.08R FOG
6HR MIN TEMP:  75; 6HR MAX TEMP:  80;

HUTCHINSON     CLOUDY    77  74  90 N9        30.15R FOG
6HR MIN TEMP:  72; 6HR MAX TEMP:  79;

MEDICINE LODGE   N/A     72  70  93 N3        30.14R
NEWTON         MOCLDY    75  70  83 NE8       30.18R
PARSONS        CLEAR     74  71  91 CALM      30.10R FOG
6HR MIN TEMP:  73; 6HR MAX TEMP:  77;

WICHITA INTL   MOCLDY    75  71  87 S3        30.12R FOG
6HR MIN TEMP:  74; 6HR MAX TEMP:  80;

WICHITA JABRA  PTCLDY    74  71  91 N3        30.13R
6HR MIN TEMP:  73; 6HR MAX TEMP:  84;

WICHITA MCCONL PTCLDY    75  75 100 SE2       30.13R
WINFIELD       CLEAR     75  74  96 CALM      30.13R FOG
6HR MIN TEMP:  74; 6HR MAX TEMP:  80;

$$

KSZ007>012-019>026-033>040-048>060-102>105-231300-
NORTHEAST KANSAS

CITY           SKY/WX    TMP DP  RH WIND       PRES   REMARKS
CONCORDIA      CLOUDY    73  65  75 NW23G40   30.28R
6HR MIN TEMP:  72; 6HR MAX TEMP:  77;

EMPORIA        CLOUDY    75  71  87 NE9       30.14R
6HR MIN TEMP:  74; 6HR MAX TEMP:  81;

LAWRENCE       CLEAR     75  67  76 VRB6      30.14R
6HR MIN TEMP:  74; 6HR MAX TEMP:  84;

MANHATTAN      MOCLDY    74  66  76 NE10      30.16R
6HR MIN TEMP:  74; 6HR MAX TEMP:  82;

MARYSVILLE     PTCLDY    66  63  88 N8        30.20S
OLATHE IND     MOCLDY    76  68  76 NE8       30.14R
6HR MIN TEMP:  75; 6HR MAX TEMP:  82;

OLATHE EXE     CLOUDY    76  67  73 NE12G18   30.12R
6HR MIN TEMP:  75; 6HR MAX TEMP:  84;

SALINA         CLOUDY    77  68  73 NE9       30.18R
6HR MIN TEMP:  77; 6HR MAX TEMP:  87;

TOPEKA BILLARD CLEAR     74  68  81 N6        30.16R
6HR MIN TEMP:  74; 6HR MAX TEMP:  83;

TOPEKA FORBES  CLEAR     74  68  81 N5        30.15R
6HR MIN TEMP:  74; 6HR MAX TEMP:  83;

$$



USA.gov is the U.S. government's official web portal to all federal, state and local government web resources and services.